Total_Precipitation_Accumulation
0.00 0.00 0.01 0.02 0.11 0.29 0.52 0.47 0.53 0.62 0.64 0.58 0.60 0.67 0.76 0.87 1.08 1.84 1.19 0.60 0.43 0.42 0.40 0.46 0.43 0.42 0.45 0.46 0.52 0.59 0.60 0.57 0.59 0.61 0.66 0.63 0.61 0.61 0.64 0.73 0.91 0.93 0.94 0.85 0.77 0.77 0.76 0.71 0.72
0.01 0.02 0.02 0.04 0.16 0.45 0.54 0.47 0.58 0.63 0.55 0.47 0.54 0.67 0.65 0.63 0.59 0.60 0.70 0.56 0.43 0.38 0.43 0.43 0.40 0.42 0.43 0.44 0.46 0.57 0.63 0.61 0.61 0.59 0.70 0.70 0.70 0.72 0.71 0.74 0.90 1.11 1.15 1.11 0.93 0.84 0.81 0.75 0.73
0.02 0.03 0.05 0.05 0.19 0.45 0.59 0.49 0.53 0.51 0.45 0.48 0.56 0.65 0.72 0.75 0.68 0.60 0.58 0.40 0.47 0.41 0.47 0.49 0.41 0.39 0.40 0.44 0.50 0.60 0.69 0.74 0.71 0.70 0.72 0.75 0.78 0.81 0.79 0.82 0.87 1.09 1.19 1.16 1.05 0.99 0.94 0.86 0.79
0.02 0.04 0.05 0.09 0.21 0.33 0.43 0.45 0.54 0.60 0.53 0.54 0.55 0.71 0.83 0.72 0.68 0.62 0.55 0.47 0.43 0.44 0.48 0.41 0.39 0.38 0.42 0.48 0.53 0.59 0.77 0.84 0.77 0.78 0.81 0.78 0.79 0.83 0.85 0.94 0.97 0.98 1.03 1.08 1.10 1.12 1.09 0.98 0.86
0.04 0.04 0.06 0.14 0.22 0.27 0.39 0.47 0.63 0.70 0.57 0.56 0.61 0.85 1.00 0.90 0.82 0.78 0.69 0.62 0.50 0.48 0.55 0.47 0.44 0.46 0.47 0.48 0.52 0.62 0.73 0.79 0.80 0.84 0.90 0.90 0.85 0.84 0.93 1.06 1.12 1.14 1.18 1.18 1.16 1.18 1.12 1.07 1.05
0.04 0.04 0.09 0.18 0.21 0.27 0.33 0.46 0.51 0.60 0.58 0.57 0.67 1.06 1.44 1.43 1.33 1.22 1.08 0.83 0.64 0.56 0.64 0.63 0.58 0.54 0.52 0.53 0.54 0.65 0.74 0.79 0.88 0.89 0.89 0.98 1.03 1.00 1.02 1.13 1.25 1.29 1.29 1.22 1.14 1.08 1.03 1.07 1.11
0.06 0.05 0.10 0.17 0.25 0.30 0.35 0.49 0.55 0.61 0.61 0.70 0.88 1.11 1.45 1.60 1.65 1.54 1.40 1.13 1.04 0.95 0.98 0.94 0.79 0.67 0.63 0.68 0.70 0.71 0.72 0.76 0.86 0.96 0.91 0.89 1.01 1.14 1.14 1.14 1.25 1.35 1.25 1.17 1.09 1.06 0.97 1.00 1.05
0.06 0.06 0.08 0.16 0.26 0.35 0.41 0.58 0.57 0.57 0.66 0.80 1.03 1.27 1.65 1.61 1.44 1.58 1.62 1.53 1.48 1.51 1.48 1.12 0.96 0.93 0.95 0.94 0.90 0.86 0.82 0.82 0.85 0.90 0.95 0.93 0.92 1.05 1.21 1.20 1.24 1.30 1.20 1.12 1.08 1.08 1.03 0.99 1.07
0.06 0.06 0.09 0.17 0.29 0.36 0.34 0.52 0.50 0.45 0.53 0.72 1.00 1.14 1.33 1.27 1.25 1.56 1.75 1.98 2.05 1.85 1.71 1.46 1.22 1.17 1.15 1.05 0.94 0.98 0.97 0.93 0.95 0.98 0.97 1.00 1.03 1.22 1.38 1.27 1.28 1.22 1.18 1.13 1.14 1.18 1.20 1.19 1.19
0.03 0.04 0.08 0.14 0.18 0.26 0.34 0.46 0.43 0.51 0.57 0.71 0.84 1.09 1.31 1.25 1.47 1.69 1.85 2.25 2.17 2.05 1.84 1.74 1.61 1.43 1.41 1.21 1.26 1.34 1.28 1.24 1.17 1.29 1.22 1.30 1.52 1.64 1.54 1.74 1.70 1.55 1.46 1.41 1.43 1.46 1.38 1.27 1.19
0.04 0.04 0.09 0.14 0.14 0.21 0.33 0.42 0.44 0.57 0.77 1.07 1.16 1.18 1.26 1.31 1.57 1.82 2.04 2.40 2.48 2.26 1.93 1.90 1.86 1.86 1.90 1.90 1.72 1.65 1.67 1.72 1.62 1.75 1.65 1.77 1.89 1.85 1.92 2.09 2.03 1.91 1.78 1.70 1.77 1.63 1.34 1.32 1.43
0.07 0.08 0.13 0.13 0.17 0.26 0.41 0.52 0.70 0.77 0.93 1.21 1.32 1.28 1.43 1.50 1.63 1.80 2.05 2.38 2.66 2.54 2.32 2.35 2.17 2.11 2.18 2.42 2.36 2.02 1.89 1.89 1.82 2.03 1.98 2.14 2.29 2.29 2.45 2.50 2.29 2.32 2.30 2.26 2.13 1.99 1.75 1.67 1.64
0.08 0.10 0.13 0.12 0.21 0.32 0.50 0.57 0.69 0.71 0.60 0.89 1.16 1.35 1.54 1.49 1.66 1.83 2.14 2.70 3.00 2.95 2.76 2.75 2.69 2.60 2.65 2.91 2.94 2.43 2.29 2.43 2.69 2.73 2.50 2.50 2.52 2.58 2.84 2.83 2.69 2.65 2.74 2.65 2.49 2.27 2.28 2.23 2.06
0.05 0.07 0.09 0.12 0.19 0.28 0.43 0.46 0.58 0.79 0.74 0.86 1.04 1.31 1.55 1.74 1.98 2.24 2.53 2.97 3.34 3.41 3.21 3.08 3.04 3.06 3.00 3.09 3.13 3.13 2.91 3.00 3.21 3.25 3.17 3.04 3.06 3.16 3.32 3.28 3.09 2.90 2.98 2.92 2.76 2.64 2.72 2.67 2.62
0.08 0.08 0.11 0.16 0.23 0.27 0.32 0.53 0.68 0.85 0.92 1.03 1.15 1.35 1.63 1.86 2.11 2.37 2.84 3.14 3.23 3.25 3.20 3.25 3.18 3.35 3.47 3.47 3.35 3.45 3.50 3.62 3.77 3.75 3.55 3.37 3.41 3.70 3.76 3.74 3.44 3.19 3.21 3.42 3.38 3.24 3.18 2.90 2.81
0.13 0.13 0.17 0.21 0.23 0.30 0.30 0.61 0.80 0.69 0.80 1.11 1.30 1.40 1.53 1.72 2.10 2.46 2.84 3.03 3.18 3.52 3.55 3.51 3.47 3.56 3.81 3.85 3.73 3.71 3.70 4.05 4.16 4.13 3.99 3.70 3.64 3.77 3.87 3.86 3.70 3.55 3.49 3.76 3.91 3.81 3.70 3.50 3.40
0.18 0.23 0.26 0.27 0.24 0.29 0.34 0.63 0.79 0.77 0.81 1.08 1.46 1.64 1.61 1.82 2.26 2.65 2.95 3.18 3.31 3.47 3.65 3.61 3.64 3.82 3.87 3.97 3.85 3.98 4.17 4.19 4.15 4.13 4.16 4.09 4.02 4.12 4.18 4.07 4.05 4.08 4.16 4.16 3.90 4.00 3.83 3.85 3.73
0.24 0.27 0.29 0.32 0.30 0.29 0.36 0.58 0.79 0.90 1.09 1.21 1.42 1.67 1.81 1.85 2.08 2.41 2.84 3.29 3.42 3.44 3.41 3.53 3.58 3.73 3.87 4.11 4.11 4.19 4.37 4.50 4.66 4.79 4.80 4.58 4.56 4.53 4.77 4.72 4.65 4.63 4.59 4.39 4.30 4.30 4.07 3.89 3.74
0.23 0.30 0.32 0.34 0.32 0.38 0.46 0.61 0.85 1.00 1.20 1.26 1.31 1.45 1.67 1.94 2.13 2.45 2.79 3.08 3.57 3.60 3.47 3.54 3.71 3.93 4.04 4.33 4.43 4.69 5.08 5.32 5.46 5.46 5.31 5.34 5.22 5.30 5.36 5.15 4.99 4.86 4.82 4.72 4.65 4.47 4.25 3.99 3.87
0.23 0.38 0.40 0.37 0.32 0.40 0.57 0.73 0.93 1.10 1.18 1.17 1.30 1.47 1.64 2.07 2.47 2.68 2.83 3.22 3.68 3.85 3.85 3.87 4.04 4.38 4.62 4.89 5.32 5.64 6.00 6.27 6.43 6.44 5.99 5.74 5.58 5.47 5.38 5.44 5.36 5.17 5.02 4.83 4.62 4.52 4.32 3.98 3.90
0.18 0.26 0.33 0.34 0.33 0.44 0.66 0.95 1.09 1.21 1.36 1.56 1.77 1.93 2.02 2.25 2.65 2.75 2.81 3.18 3.51 3.73 3.86 4.00 4.25 4.70 5.25 5.64 6.08 6.49 6.71 6.76 6.58 6.29 6.16 5.96 5.79 5.64 5.44 5.33 5.13 4.98 4.86 4.73 4.52 4.32 4.18 3.97 3.83
0.17 0.19 0.27 0.29 0.37 0.52 0.63 1.13 1.45 1.54 1.70 1.97 2.16 2.17 2.25 2.38 2.56 2.68 2.79 3.08 3.41 3.70 3.88 4.22 4.72 5.35 5.90 6.36 6.94 7.46 7.57 7.30 6.94 6.47 6.04 5.78 5.55 5.24 4.99 4.88 4.79 4.62 4.28 4.07 3.90 3.82 3.69 3.56 3.38
0.17 0.16 0.24 0.28 0.33 0.47 0.64 1.09 1.89 2.00 2.08 2.30 2.44 2.22 2.24 2.17 2.22 2.46 2.60 2.82 3.28 3.58 3.85 4.20 4.76 5.50 6.22 7.01 7.66 8.07 7.94 7.57 7.10 6.41 5.81 5.34 4.97 4.63 4.35 4.23 4.10 3.87 3.48 3.13 3.00 3.10 3.17 3.18 3.08
0.14 0.17 0.23 0.29 0.37 0.60 0.61 1.00 1.79 2.17 2.35 2.49 2.38 2.12 2.05 1.96 1.98 2.09 2.26 2.56 2.97 3.28 3.56 3.97 4.64 5.43 6.08 6.64 7.10 7.32 7.22 7.01 6.46 5.74 5.11 4.69 4.38 4.06 3.69 3.36 3.11 2.87 2.70 2.51 2.47 2.53 2.60 2.81 2.91
0.17 0.23 0.50 0.68 0.78 0.79 0.65 0.99 1.71 1.95 2.06 1.99 1.93 1.95 1.82 1.89 1.85 1.87 2.00 2.24 2.61 2.80 3.20 3.62 4.08 4.76 5.19 5.51 5.84 6.00 6.06 5.84 5.51 5.02 4.56 4.13 3.64 3.27 2.96 2.67 2.56 2.43 2.31 2.23 2.24 2.25 2.22 2.33 2.53
0.18 0.21 0.57 0.89 0.90 0.89 0.86 1.34 1.90 1.85 1.77 1.65 1.61 1.66 1.69 1.74 1.78 1.81 1.96 2.15 2.43 2.58 2.77 2.96 3.24 3.64 3.81 3.84 4.07 4.33 4.36 4.31 4.18 3.89 3.53 3.23 2.89 2.51 2.26 2.06 1.93 1.90 1.95 1.89 1.97 1.99 2.01 2.03 2.11
0.18 0.19 0.29 0.55 0.63 1.01 1.28 1.74 2.20 1.97 1.88 1.80 1.74 1.59 1.53 1.51 1.59 1.78 1.91 1.92 1.98 2.04 2.14 2.25 2.43 2.59 2.65 2.73 2.81 2.96 2.97 2.95 2.89 2.74 2.46 2.24 2.09 1.86 1.73 1.66 1.63 1.60 1.63 1.71 1.73 1.71 1.74 1.83 1.86
0.16 0.23 0.35 0.62 1.05 1.32 1.58 2.20 2.77 2.57 2.16 1.84 1.64 1.44 1.35 1.39 1.50 1.68 1.81 1.79 1.79 1.75 1.83 1.91 2.00 2.06 2.08 2.14 2.11 2.08 2.12 2.13 2.12 1.98 1.86 1.76 1.64 1.53 1.52 1.47 1.40 1.35 1.36 1.39 1.46 1.47 1.49 1.55 1.63
0.25 0.30 0.45 0.67 0.83 1.30 1.83 2.57 2.63 2.81 2.63 2.13 1.79 1.62 1.50 1.41 1.44 1.57 1.58 1.57 1.58 1.57 1.64 1.70 1.70 1.70 1.69 1.68 1.67 1.63 1.58 1.61 1.68 1.68 1.58 1.52 1.42 1.29 1.27 1.18 1.10 1.07 1.10 1.18 1.28 1.32 1.36 1.41 1.47
0.23 0.31 0.47 0.89 0.98 1.03 1.73 2.75 2.53 2.76 2.83 2.52 2.19 2.00 1.86 1.56 1.49 1.48 1.43 1.41 1.39 1.43 1.48 1.54 1.49 1.44 1.48 1.42 1.37 1.37 1.36 1.36 1.41 1.39 1.28 1.22 1.24 1.15 1.11 1.02 0.94 0.93 0.95 1.02 1.08 1.12 1.15 1.27 1.30